Вернуться в каталог

FENGYUN 1C DEB

АктивенPO
NORAD 29832·DEBRIS·🇨🇳 China

Запущен May 10, 1999 с Taiyuan Satellite Launch Center

Loading…

Ближайшие Пролёты (ближайшие 24 часа)

TLE

СвежийSource: Space-Track

Эпоха: Sep 14, 2026, 14:50 UTC

1 29832U 99025EA  26257.61806517  .00000825  00000-0  15329-3 0  9993
2 29832  98.8505  30.6167 0192325 161.4578 199.3755 14.57047222 42726

Отслеживайте FENGYUN 1C DEB в реальном времени с AllMySat

Download on the App Store